CZ-6A DEB

Satellite information

Favourite Embed

Satellite Type and Status

DEBRISIN ORBIT

Key statistics

Satellite CZ-6A DEB at a glance.

Uptime

335

Days in orbit

Revolutions

≈ 14.6

Per day

Orbit

LEO

Low Earth Orbit

Inclination

89.0

Latest

Satellite identification and parameters

Extended collection of information and parameters for CZ-6A DEB.

Object identification

Identified? True

Debris? True

Object name: CZ-6A DEB

International designator: 2024-140BM

Object number (NORAD): 60660

Object ID (CCSDS): 60660

Country: PEOPLES REPUBLIC OF CHINA (PRC)

Current information (Y/N): Y

RCS size: MEDIUM

Orbital parameters

Period: 98.915 minutes

Inclination: 89.0046 deg

SMA: 7084.936 km

Apoapsis: 808.55 km

Periapsis: 605.053 km

RAAN: 311.5822 deg

Eccentricy: 0.0143612

Argument of periapsis: 33.0368 deg

Mean anomaly: 327.9712 deg

Mean motion: 14.55790333 rev/day

Mean motion (dot): 0.00002386 rev/day2

B* drag term: 0.00047016 1/REarth

Two-line elements (TLE)

Creation date: July 6, 2025, 6:05 p.m.

Reference frame: TEME

Reference center: EARTH

Epoch: July 6, 2025, 10:24 a.m. UTC

TLE line 0: 0 CZ-6A DEB

TLE line 1: 1 60660U 24140BM 25187.43338256 .00002386 00000-0 47016-3 0 9996

TLE line 2: 2 60660 89.0046 311.5822 0143612 33.0368 327.9712 14.55790333 48169

Live tracking on map

Real-time ground track for satellite CZ-6A DEB.

In-orbit conjunctions

A list of the most updated potential collisions computed for object CZ-6A DEB.

Target Orbit TCA Probability of collision Miss distance Type
SL-8 R/B LEO 2025-02-05 23:20:38 0.0004398505 217.0 (m) ROCKET BODY
FENGYUN 1C DEB SSO 2024-12-14 09:15:21 0.0001169425 645.0 (m) DEBRIS
FENGYUN 1C DEB SSO 2024-11-17 18:57:49 0.0001010992 922.0 (m) DEBRIS
OBJECT C LEO 2024-09-26 13:08:56 0.0009652833 733.0 (m) UNKNOWN

Associated space launch

18 Low Earth Orbit communication satellites with Ku, Q and V band payloads for the G60 constellation operated by Shanghai Spacecom Satellite Technology (SSST) with funding backed by the Shanghai local government. Initial constellation will consist of 1296 satellites by 2027 with long term plans to expand it to 12000 satellites.

CZ-6A DEB was lifted into orbit during the mission ‘Long March 6A | G60 Polar Group 01’, on board a Long March 6A space rocket.

The launch took place on Aug. 6, 2024, 6:42 a.m. from Launch Complex 9A.

For more information about the launch, click the button.

Launch to space Long March 6A | G60 Polar Group 01
Long March 6A | G60 Polar Group 01

Agency: N/A

Status: Launch Successful

Launch date: Aug. 6, 2024, 6:42 a.m. UTC

Rocket: Long March 6A

Launch pad: Launch Complex 9A

Location: Taiyuan Satellite Launch Center, People's Republic of China

...

Latest news about this satellite

News about space launch
Brightness of first Chinese broadband constellation satellites alarms astronomers

The first satellites of a Chinese broadband constellation are significantly brighter than those of Western systems, posing a new challenge for astronomers.

News about space launch
Chinese rocket stage breaks up into cloud of more than 700 pieces of space debris

HELSINKI — A Chinese Long March 6A rocket’s upper stage has fragmented into a cloud of over 700 pieces of space debris, adding to concerns about long-term orbital safety. China […]

News about space launch
China's Thousand Sails Megaconstellation Kicks Off with Dangerous Debris Field

China's Thousand Sails Megaconstellation Kicks Off with Dangerous Debris Field


Newsletter sign-up

Weekly statistics, charts and insights to help you stay on top of the space industry.